Вернуться в каталог

ONEWEB-0349

АктивенСвязьPO
NORAD 49281·PAYLOAD·🇬🇧 United Kingdom

Запущен Oct 14, 2021 с Vostochny Cosmodrome

Loading…

Ближайшие Пролёты (ближайшие 24 часа)

TLE

СвежийSource: CelesTrak SupGP

Эпоха: Sep 14, 2026, 18:43 UTC

1 49281C 21090C   26257.78002732  .00001847  00000+0  45482-2 0  2578
2 49281  87.9136 256.5689 0002021  90.7831 305.0044 13.20767546    12

Отслеживайте ONEWEB-0349 в реальном времени с AllMySat

Download on the App Store